Regional Weather Roundup
Issued by NWS

Home | Current Version | Previous Version | Graphics & Text | Print | Product List | Glossary On
Versions: 1 2 3 4 5 6 7 8 9 10 11 12 13 14 15 16 17 18 19 20 21 22 23 24 25 26 27 28 29 30 31 32 33 34 35 36 37 38 39 40 41 42 43 44 45 46 47 48 49 50
000
ASUS43 KMKX 251411
RWRWI

WISCONSIN REGIONAL WEATHER ROUNDUP
NATIONAL WEATHER SERVICE MILWAUKEE/SULLIVAN WI
900 AM CDT SUN JUN 25 2017

NOTE: "FAIR" INDICATES FEW OR NO CLOUDS BELOW 12,000 FEET WITH NO
SIGNIFICANT WEATHER AND/OR OBSTRUCTIONS TO VISIBILITY.

WIZ001-002-006>008-014>016-023>028-251500-
NORTHWEST WISCONSIN

CITY           SKY/WX    TMP DP  RH WIND       PRES   REMARKS
SUPERIOR ARPT  NOT AVBL
ASHLAND        RAIN      55  53  93 SW3       30.04R FOG
HAYWARD        CLOUDY    55  50  83 VRB7      30.05R
SIREN          CLOUDY    56  52  84 W5        30.08R
CUMBERLAND     CLOUDY    54  50  87 W10       30.08S
RICE LAKE      CLOUDY    55  51  86 W9        30.09S
CHETEK         RAIN      54  51  91 W7        30.08R
LADYSMITH      CLOUDY    55  51  86 W8        30.07R
EAU CLAIRE     CLOUDY    57  50  77 W9        30.08R
MENOMONIE      CLOUDY    57  50  79 W8        30.10R
NEW RICHMOND   CLOUDY    56  48  76 W12G17    30.11R
OSCEOLA        CLOUDY    56  50  79 W12G17    30.13S
$$

WIZ003>005-009-010-017-018-251500-
NORTH CENTRAL WISCONSIN

CITY           SKY/WX    TMP DP  RH WIND       PRES   REMARKS
MANITOWISH WTR CLOUDY    55  53  95 CALM      30.02R
ARBOR VITAE    CLOUDY    57  53  87 W6        30.02R
WOODRUFF       CLOUDY    57  53  87 W6        30.02R
RHINELANDER    CLOUDY    56  52  86 W8        30.03R
EAGLE RIVER    CLOUDY    56  52  86 W7        30.02R
LAND O LAKES   CLOUDY    54  50  86 NW3       30.03R
PHILLIPS       CLOUDY    53  52  95 NW5       30.04R
TOMAHAWK       NOT AVBL
MEDFORD        CLOUDY    52  49  90 NW8       30.05R
MERRILL        CLOUDY    54  52  92 W7        30.04S
$$

WIZ029-030-035-036-043>047-251500-
CENTRAL WISCONSIN

CITY           SKY/WX    TMP DP  RH WIND       PRES   REMARKS
WAUSAU         PTSUNNY   57  51  80 NW9       30.03R
MOSINEE        CLOUDY    55  52  88 W8        30.06R
MARSHFIELD     CLOUDY    53  49  86 W10       30.06R
STEVENS POINT  CLOUDY    53  49  86 W8        30.06R
WAUPACA        CLOUDY    59  52  77 W12       30.04R
WAUTOMA        SUNNY     61  51  70 W12       30.06R
WISC RAPIDS    CLOUDY    54  49  83 W9        30.08R
CAMP DOUGLAS   PTSUNNY   57  52  82 W13       30.09R
$$

WIZ011>013-019>022-031-037>040-048>050-251500-
NORTHEAST WISCONSIN

CITY           SKY/WX    TMP DP  RH WIND       PRES   REMARKS
ANTIGO         CLOUDY    56  52  85 W12       30.03R
SHAWANO        CLOUDY    61  52  72 NW9       30.01R
OCONTO         PTSUNNY   59  52  77 N6        29.99R
STURGEON BAY     N/A     56  53  90 NW9         N/A
GREEN BAY      PTSUNNY   60  54  80 W10       30.01R
MANITOWOC      CLOUDY    59  50  72 W12G18    30.00R
APPLETON       PTSUNNY   57  48  72 W10       30.01R
CLINTONVILLE   CLOUDY    59  48  67 NW13      30.02R
OSHKOSH        CLOUDY    57  50  77 W7        30.03R
$$

WIZ032>034-041-042-053>061-251500-
SOUTHWEST WISCONSIN

CITY           SKY/WX    TMP DP  RH WIND       PRES   REMARKS
LA CROSSE      CLOUDY    63  52  67 W13       30.11R
SPARTA         CLOUDY    55  52  89 W6        30.11R
VIROQUA        CLOUDY    54  51  90 W9        30.12R
BOSCOBEL       MOSUNNY   61  51  70 W9        30.13R
PRAIRIE DU CHI MOSUNNY   59  49  69 W7G16     30.14R
PLATTEVILLE    SUNNY     59  53  81 W12       30.14S
$$

WIZ056-057-062-063-064-067-068-251500-
SOUTH CENTRAL WISCONSIN

CITY           SKY/WX    TMP DP  RH WIND       PRES   REMARKS
REEDSBURG      CLOUDY    56  51  82 W12G17    30.10R
BARABOO/DELLS  CLOUDY    57  49  72 W10G17    30.09S
LONE ROCK      MOSUNNY   60  49  66 NW17G25   30.11S
MINERAL POINT  MOSUNNY   59  54  82 W9        30.12S
MADISON        MOSUNNY   59  51  75 NW8       30.09R
MIDDLETON      SUNNY     59  52  78 W14       30.10S
WATERTOWN      SUNNY     59  52  77 W9        30.07R
MONROE         SUNNY     59  50  72 W13       30.12R
JANESVILLE     MOSUNNY   63  52  67 NW13      30.10R
$$

WIZ051-052-058>065-066-070>072-251500-
SOUTHEAST WISCONSIN

CITY           SKY/WX    TMP DP  RH WIND       PRES   REMARKS
MILWAUKEE      MOSUNNY   62  50  64 W10G21    30.06R
WAUKESHA       SUNNY     55  48  76 W13G18    30.08R
MILWAUKEE/TIMM SUNNY     61  46  59 W14G21    30.06R
RACINE         SUNNY     62  50  64 W10       30.08R
KENOSHA        SUNNY     61  50  67 W13G20    30.08R
FOND DU LAC    SUNNY     61  49  64 W14       30.04S
SHEBOYGAN      SUNNY     61  52  72 W14G24    30.01R
WEST BEND      SUNNY     59  50  72 W15G21    30.04S
JUNEAU         SUNNY     58  50  76 W9        30.07S
$$

LSZ147-162-251500-
LAKE SUPERIOR

STATION/POSITION TIME  TEMP    WIND        PRES    WAVE
                       AIR SEA DIR/SP/G            HT/PER
                 (UTC) (F)     (DEG/KT/KT) (MB)    (FT/S)
W MID LAKE BUOY  1350   45 39  290/  4/  4 1016.4R   0
DEVILS ISLAND    1400   52     250/  8/  9 1016.8R
SAXON HARBOR     1340   56     270/  3/  4 1016.3R
$$

LMZ867-665-643>646-251500-
LAKE MICHIGAN

STATION/POSITION TIME  TEMP    WIND        PRES    WAVE
                       AIR SEA DIR/SP/G            HT/PER
                 (UTC) (F)     (DEG/KT/KT) (MB)    (FT/S)
CHAMBERS ISLAND  1340   59     290/  5/  8 1014.6R
S GREEN BAY BUOY 1400   58     330/ 12/ 14 1015.4
N MID LAKE BUOY  1350   55 57  350/ 10/ 10 1014.7R   1/ 4
NORTHPORT PIER   1340   58     330/ 10/ 13 1014.2R
KEWAUNEE LAKESHO 1348   57     300/ 10/ 16 1014.8R
SHEBOYGAN LAKESH 1400   60     290/ 15/ 18 1015.9R
PORT WASHINGTON  1340   63     270/  6/ 10 1017.6R
ATWATER BUOY     1309   59 58  260/ 12/ 16 1017.4
MILWAUKEE LAKESH 1350   61     290/ 12/ 16   N/A
S MID LAKE BUOY  1350   58 61  300/ 17/ 19 1017.6R   4/ 5
KENOSHA   LAKESH 1400   61     270/ 13/ 18 1018.3
$$

TC  - TEMPERATURE IN CELSIUS
VSB - VISIBILITY IN STATUTE MILES
WCI - WIND CHILL INDEX
HX  - HEAT INDEX




USA.gov is the U.S. government's official web portal to all federal, state and local government web resources and services.